PSLV DEB

Satellite information

Favourite Embed

Satellite Type and Status

DEBRISIN ORBIT

Key statistics

Satellite PSLV DEB at a glance.

Uptime

8777

Days in orbit

Revolutions

≈ 14.8

Per day

Orbit

SSO

Sun Synchronous Orbit

Inclination

98.2

Latest

Satellite identification and parameters

Extended collection of information and parameters for PSLV DEB.

Object identification

Identified? True

Debris? True

Object name: PSLV DEB

International designator: 2001-049KB

Object number (NORAD): 27305

Object ID (CCSDS): 27305

Country: INDIA (IND)

Current information (Y/N): Y

RCS size: SMALL

Orbital parameters

Period: 97.357 minutes

Inclination: 98.2433 deg

SMA: 7010.328 km

Apoapsis: 659.779 km

Periapsis: 604.607 km

RAAN: 355.4858 deg

Eccentricy: 0.0039351

Argument of periapsis: 143.8945 deg

Mean anomaly: 7.2273 deg

Mean motion: 14.79092232 rev/day

Mean motion (dot): 0.00002574 rev/day2

B* drag term: 0.0003508 1/REarth

Two-line elements (TLE)

Creation date: Oct. 31, 2025, 6:36 p.m.

Reference frame: TEME

Reference center: EARTH

Epoch: Oct. 31, 2025, 3:15 p.m. UTC

TLE line 0: 0 PSLV DEB

TLE line 1: 1 27305U 01049KB 25304.63591159 .00002574 00000-0 35080-3 0 9991

TLE line 2: 2 27305 98.2433 355.4858 0039351 143.8945 7.2273 14.79092232279649

Live tracking on map

Real-time ground track for satellite PSLV DEB.

In-orbit conjunctions

A list of the most updated potential collisions computed for object PSLV DEB.

Target Orbit TCA Probability of collision Miss distance Type
PSLV R/B SSO 2025-05-19 22:11:02 0.0005271586 133.0 (m) ROCKET BODY

Associated space launch

Technology Experiment Satellite (TES) is Indian remote sensing and photo-reconnaissance satellite. The 1108 kg satellite carries a one-meter resolution panchromatic camera is an experimental satellite to demonstrate and validate, in orbit, technologies that could be used in the future satellites of Indian Space Research Organisation (ISRO). It was successfully placed in 572 km Sun-synchronous orbit on 22 October 2001 using the PSLV-C3. The PSLV-C3 also injected two more satellites: PROBA, a Belgian satellite and BIRD, a German satellite.

PSLV DEB was lifted into orbit during the mission ‘PSLV | TES’, on board a PSLV space rocket.

The launch took place on Oct. 22, 2001, 4:53 a.m. from Satish Dhawan Space Centre First Launch Pad.

For more information about the launch, click the button.

Launch to space PSLV | TES
PSLV | TES

Agency: N/A

Status: Launch Successful

Launch date: Oct. 22, 2001, 4:53 a.m. UTC

Rocket: PSLV

Launch pad: Satish Dhawan Space Centre First Launch Pad

Location: Satish Dhawan Space Centre, India

...

Latest news about this satellite

News about space launch
Proba-1’s T-plus 23 years in orbit

Proba-1’s T-plus 23 years in orbit


Newsletter sign-up

Weekly statistics, charts and insights to help you stay on top of the space industry.